| time (UTC) | temp F | wind direction | speed knots | gust knots | rain 1hr in | rain 24hr in | rain mn in | humidity % | barometer mb |
| 20260505165444 | 72 | 40 | 2.6 | 2.6 | 0.00 | 0.00 | 0.00 | 62 | 1014.3 |
| 20260505165214 | 72 | 264 | 1.7 | 2.6 | 0.00 | 0.00 | 0.00 | 64 | 1014.3 |
| 20260505164943 | 71 | 268 | 1.7 | 1.7 | 0.00 | 0.00 | 0.00 | 64 | 1014.3 |
| 20260505164444 | 71 | 267 | 2.6 | 8.7 | 0.00 | 0.00 | 0.00 | 64 | 1014.2 |
| 20260505164214 | 71 | 285 | 0.9 | 2.6 | 0.00 | 0.00 | 0.00 | 63 | 1014.2 |
| 20260505163943 | 71 | 233 | 0.9 | 5.2 | 0.00 | 0.00 | 0.00 | 62 | 1014.2 |
| 20260505163444 | 71 | 256 | 4.3 | 8.7 | 0.00 | 0.00 | 0.00 | 63 | 1014.2 |
| 20260505163215 | 71 | 219 | 2.6 | 3.5 | 0.00 | 0.00 | 0.00 | 62 | 1014.2 |
| 20260505162943 | 71 | 275 | 0.0 | 6.1 | 0.00 | 0.00 | 0.00 | 63 | 1014.2 |
| 20260505162443 | 71 | 203 | 2.6 | 2.6 | 0.00 | 0.00 | 0.00 | 64 | 1014.2 |
| 20260505162214 | 71 | 244 | 2.6 | 8.7 | 0.00 | 0.00 | 0.00 | 63 | 1014.2 |
| 20260505161944 | 71 | 208 | 3.5 | 8.7 | 0.00 | 0.00 | 0.00 | 63 | 1014.2 |
| 20260505161443 | 71 | 253 | 1.7 | 6.1 | 0.00 | 0.00 | 0.00 | 62 | 1014.2 |
| 20260505160943 | 71 | 188 | 0.9 | 6.1 | 0.00 | 0.00 | 0.00 | 64 | 1014.2 |
| 20260505160443 | 71 | 239 | 3.5 | 5.2 | 0.00 | 0.00 | 0.00 | 64 | 1014.2 |
| 20260505160216 | 70 | 224 | 3.5 | 7.8 | 0.00 | 0.00 | 0.00 | 63 | 1014.2 |
| 20260505153214 | 70 | 212 | 2.6 | 5.2 | 0.00 | 0.00 | 0.00 | 66 | 1014.3 |
| 20260505152944 | 69 | 246 | 1.7 | 13.9 | 0.00 | 0.00 | 0.00 | 65 | 1014.2 |
| 20260505152444 | 69 | 247 | 6.1 | 6.1 | 0.00 | 0.00 | 0.00 | 67 | 1014.2 |
| 20260505152214 | 69 | 193 | 0.0 | 0.0 | 0.00 | 0.00 | 0.00 | 66 | 1014.2 |
| 20260505151945 | 69 | 304 | 0.9 | 0.9 | 0.00 | 0.00 | 0.00 | 68 | 1014.2 |
| 20260505151443 | 69 | 178 | 1.7 | 1.7 | 0.00 | 0.00 | 0.00 | 69 | 1014.1 |
| 20260505151213 | 69 | 250 | 2.6 | 2.6 | 0.00 | 0.00 | 0.00 | 69 | 1014.1 |
| 20260505150944 | 69 | 230 | 0.9 | 0.9 | 0.00 | 0.00 | 0.00 | 69 | 1014.1 |
| 20260505150444 | 69 | 232 | 1.7 | 7.8 | 0.00 | 0.00 | 0.00 | 72 | 1014.1 |
| 20260505150215 | 68 | 212 | 2.6 | 5.2 | 0.00 | 0.00 | 0.00 | 72 | 1014.1 |
| 20260505140444 | 66 | 234 | 0.0 | 0.9 | 0.00 | 0.00 | 0.00 | 75 | 1014.1 |
| 20260505140214 | 66 | 217 | 4.3 | 4.3 | 0.00 | 0.00 | 0.00 | 75 | 1014.1 |
| 20260505130215 | 60 | 217 | 0.9 | 1.7 | 0.00 | 0.00 | 0.00 | 86 | 1014.1 |
| 20260505124943 | 59 | 154 | 1.7 | 1.7 | 0.00 | 0.00 | 0.00 | 86 | 1014.1 |
| 20260505124443 | 58 | 217 | 0.0 | 1.7 | 0.00 | 0.00 | 0.00 | 87 | 1013.8 |
| 20260505124214 | 58 | 202 | 2.6 | 2.6 | 0.00 | 0.00 | 0.00 | 88 | 1013.8 |
| 20260505123945 | 58 | 206 | 0.0 | 0.9 | 0.00 | 0.00 | 0.00 | 88 | 1013.8 |
| 20260505123445 | 57 | 193 | 0.0 | 0.0 | 0.00 | 0.00 | 0.00 | 89 | 1013.8 |
| 20260505123215 | 57 | 165 | 0.0 | 0.0 | 0.00 | 0.00 | 0.00 | 89 | 1013.8 |
| 20260505122943 | 57 | 217 | 0.9 | 2.6 | 0.00 | 0.00 | 0.00 | 90 | 1013.8 |
| 20260505122443 | 56 | 198 | 0.0 | 2.6 | 0.00 | 0.00 | 0.00 | 90 | 1013.8 |
| 20260505122215 | 56 | 223 | 0.0 | 1.7 | 0.00 | 0.00 | 0.00 | 90 | 1013.8 |
| 20260505121944 | 56 | 217 | 0.0 | 0.0 | 0.00 | 0.00 | 0.00 | 91 | 1013.8 |
| 20260505121445 | 56 | 209 | 0.0 | 1.7 | 0.00 | 0.00 | 0.00 | 91 | 1013.6 |
| 20260505121215 | 56 | 213 | 0.0 | 0.0 | 0.00 | 0.00 | 0.00 | 91 | 1013.6 |
| 20260505120943 | 56 | 227 | 0.0 | 0.0 | 0.00 | 0.00 | 0.00 | 91 | 1013.6 |
| 20260505120443 | 55 | 202 | 0.0 | 0.0 | 0.00 | 0.00 | 0.00 | 91 | 1013.6 |
| 20260505120216 | 55 | 223 | 0.0 | 0.0 | 0.00 | 0.00 | 0.00 | 91 | 1013.6 |
| 20260505115945 | 55 | 195 | 0.0 | 0.0 | 0.00 | 0.00 | 0.00 | 91 | 1013.3 |
| 20260505115445 | 55 | 251 | 0.0 | 0.0 | 0.00 | 0.00 | 0.00 | 92 | 1013.3 |
| 20260505115215 | 55 | 222 | 0.9 | 0.9 | 0.00 | 0.00 | 0.00 | 92 | 1013.3 |
| 20260505114943 | 55 | 205 | 0.0 | 0.9 | 0.00 | 0.00 | 0.00 | 91 | 1013.3 |
| 20260505114443 | 55 | 227 | 0.0 | 0.0 | 0.00 | 0.00 | 0.00 | 91 | 1013.1 |
| 20260505114213 | 55 | 222 | 0.0 | 0.0 | 0.00 | 0.00 | 0.00 | 91 | 1013.1 |
| 20260505113943 | 55 | 216 | 0.0 | 0.0 | 0.00 | 0.00 | 0.00 | 91 | 1013.1 |
| 20260505113445 | 55 | 203 | 0.0 | 0.9 | 0.00 | 0.00 | 0.00 | 91 | 1013.1 |
| 20260505113216 | 55 | 193 | 0.0 | 0.9 | 0.00 | 0.00 | 0.00 | 91 | 1013.1 |
| 20260505112943 | 55 | 203 | 0.0 | 0.9 | 0.00 | 0.00 | 0.00 | 91 | 1012.8 |
| 20260505112444 | 55 | 200 | 0.0 | 0.0 | 0.00 | 0.00 | 0.00 | 91 | 1012.8 |
| 20260505112214 | 55 | 199 | 0.0 | 0.9 | 0.00 | 0.00 | 0.00 | 91 | 1012.8 |
| 20260505111944 | 55 | 217 | 0.0 | 1.7 | 0.00 | 0.00 | 0.00 | 91 | 1012.8 |
| 20260505111444 | 55 | 226 | 0.0 | 0.0 | 0.00 | 0.00 | 0.00 | 91 | 1012.7 |
| 20260505111216 | 55 | 227 | 0.0 | 0.0 | 0.00 | 0.00 | 0.00 | 91 | 1012.7 |
| 20260505110943 | 55 | 215 | 0.0 | 0.9 | 0.00 | 0.00 | 0.00 | 91 | 1012.7 |
| 20260505110443 | 54 | 193 | 2.6 | 2.6 | 0.00 | 0.00 | 0.00 | 91 | 1012.7 |
| 20260505110213 | 54 | 205 | 0.0 | 0.9 | 0.00 | 0.00 | 0.00 | 91 | 1012.7 |
| 20260505102214 | 55 | 206 | 0.0 | 0.0 | 0.00 | 0.00 | 0.00 | 90 | 1012.4 |
| 20260505101945 | 55 | 217 | 0.0 | 1.7 | 0.00 | 0.00 | 0.00 | 90 | 1012.4 |
| 20260505101444 | 55 | 217 | 0.0 | 0.0 | 0.00 | 0.00 | 0.00 | 89 | 1012.3 |
| 20260505101213 | 55 | 216 | 0.0 | 0.0 | 0.00 | 0.00 | 0.00 | 89 | 1012.3 |
| 20260505100943 | 55 | 216 | 0.9 | 0.9 | 0.00 | 0.00 | 0.00 | 89 | 1012.3 |
| 20260505100443 | 55 | 205 | 0.0 | 0.0 | 0.00 | 0.00 | 0.00 | 88 | 1012.3 |
| 20260505100215 | 55 | 215 | 0.0 | 0.0 | 0.00 | 0.00 | 0.00 | 88 | 1012.3 |
| 20260505095944 | 56 | 215 | 0.0 | 0.0 | 0.00 | 0.00 | 0.00 | 87 | 1012.3 |
| 20260505095444 | 56 | 212 | 0.0 | 0.9 | 0.00 | 0.00 | 0.00 | 87 | 1012.3 |
| 20260505095213 | 56 | 213 | 0.0 | 0.0 | 0.00 | 0.00 | 0.00 | 87 | 1012.3 |
| 20260505094943 | 56 | 227 | 0.0 | 0.9 | 0.00 | 0.00 | 0.00 | 86 | 1012.3 |
| 20260505094444 | 56 | 206 | 0.0 | 0.0 | 0.00 | 0.00 | 0.00 | 86 | 1012.3 |
| 20260505094326 | 56 | 206 | 0.0 | 0.9 | 0.00 | 0.00 | 0.00 | 86 | 1012.3 |
| 20260505094214 | 56 | 206 | 0.0 | 0.9 | 0.00 | 0.00 | 0.00 | 86 | 1012.3 |
| 20260505093943 | 56 | 205 | 0.0 | 0.9 | 0.00 | 0.00 | 0.00 | 85 | 1012.3 |
| 20260505093443 | 56 | 223 | 0.0 | 0.0 | 0.00 | 0.00 | 0.00 | 85 | 1012.3 |
| 20260505093214 | 57 | 203 | 0.0 | 0.0 | 0.00 | 0.00 | 0.00 | 85 | 1012.3 |
| 20260505092943 | 57 | 203 | 0.0 | 0.9 | 0.00 | 0.00 | 0.00 | 85 | 1012.5 |
| 20260505092444 | 57 | 219 | 0.0 | 0.9 | 0.00 | 0.00 | 0.00 | 84 | 1012.5 |
| 20260505092214 | 57 | 208 | 0.9 | 0.9 | 0.00 | 0.00 | 0.00 | 84 | 1012.5 |
| 20260505091944 | 57 | 199 | 0.0 | 2.6 | 0.00 | 0.00 | 0.00 | 84 | 1012.5 |
| 20260505091444 | 57 | 208 | 0.0 | 0.9 | 0.00 | 0.00 | 0.00 | 84 | 1012.5 |
| 20260505091213 | 57 | 227 | 0.0 | 0.9 | 0.00 | 0.00 | 0.00 | 84 | 1012.5 |
| 20260505090943 | 57 | 226 | 0.9 | 1.7 | 0.00 | 0.00 | 0.00 | 83 | 1012.5 |
| 20260505090444 | 58 | 226 | 0.0 | 1.7 | 0.00 | 0.00 | 0.00 | 83 | 1012.5 |
| 20260505090215 | 58 | 224 | 0.0 | 0.9 | 0.00 | 0.00 | 0.00 | 83 | 1012.5 |
| 20260505085944 | 58 | 195 | 1.7 | 1.7 | 0.00 | 0.00 | 0.00 | 83 | 1012.5 |
| 20260505085443 | 58 | 219 | 0.0 | 1.7 | 0.00 | 0.00 | 0.00 | 82 | 1012.5 |
| 20260505085213 | 58 | 195 | 0.9 | 2.6 | 0.00 | 0.00 | 0.00 | 82 | 1012.5 |
| 20260505084944 | 58 | 223 | 0.0 | 0.9 | 0.00 | 0.00 | 0.00 | 82 | 1012.5 |
| 20260505084445 | 58 | 198 | 0.0 | 0.9 | 0.00 | 0.00 | 0.00 | 81 | 1012.7 |
| 20260505084214 | 58 | 191 | 0.9 | 0.9 | 0.00 | 0.00 | 0.00 | 81 | 1012.7 |
| 20260505083944 | 58 | 227 | 0.0 | 2.6 | 0.00 | 0.00 | 0.00 | 81 | 1012.7 |
| 20260505083444 | 58 | 244 | 0.0 | 2.6 | 0.00 | 0.00 | 0.00 | 80 | 1012.7 |
| 20260505083214 | 59 | 251 | 0.0 | 2.6 | 0.00 | 0.00 | 0.00 | 80 | 1012.7 |
| 20260505082944 | 59 | 196 | 0.9 | 2.6 | 0.00 | 0.00 | 0.00 | 80 | 1012.6 |
| 20260505082443 | 59 | 199 | 0.9 | 0.9 | 0.00 | 0.00 | 0.00 | 79 | 1012.6 |
| 20260505082214 | 59 | 233 | 1.7 | 1.7 | 0.00 | 0.00 | 0.00 | 79 | 1012.6 |
| 20260505081943 | 59 | 224 | 0.9 | 5.2 | 0.00 | 0.00 | 0.00 | 79 | 1012.6 |
| 20260505081444 | 59 | 240 | 0.9 | 1.7 | 0.00 | 0.00 | 0.00 | 78 | 1012.8 |
| 20260505081214 | 59 | 243 | 2.6 | 3.5 | 0.00 | 0.00 | 0.00 | 78 | 1012.8 |
| 20260505080944 | 59 | 203 | 2.6 | 2.6 | 0.00 | 0.00 | 0.00 | 78 | 1012.8 |
| 20260505080444 | 60 | 234 | 0.9 | 3.5 | 0.00 | 0.00 | 0.00 | 77 | 1012.8 |
| 20260505080215 | 60 | 239 | 2.6 | 2.6 | 0.00 | 0.00 | 0.00 | 77 | 1012.8 |
| 20260505075944 | 60 | 233 | 0.0 | 2.6 | 0.00 | 0.00 | 0.00 | 77 | 1012.9 |
| 20260505075444 | 60 | 227 | 0.0 | 2.6 | 0.00 | 0.00 | 0.00 | 77 | 1012.9 |
| 20260505075216 | 60 | 233 | 3.5 | 3.5 | 0.00 | 0.00 | 0.00 | 76 | 1012.9 |
| 20260505074945 | 60 | 246 | 1.7 | 2.6 | 0.00 | 0.00 | 0.00 | 76 | 1012.9 |
| 20260505074443 | 60 | 191 | 3.5 | 4.3 | 0.00 | 0.00 | 0.00 | 75 | 1013.0 |
| 20260505074213 | 60 | 256 | 0.0 | 3.5 | 0.00 | 0.00 | 0.00 | 75 | 1013.0 |
| 20260505073944 | 60 | 253 | 0.9 | 4.3 | 0.00 | 0.00 | 0.00 | 75 | 1013.0 |
| 20260505073443 | 60 | 191 | 0.0 | 4.3 | 0.00 | 0.00 | 0.00 | 74 | 1013.0 |
| 20260505073215 | 60 | 243 | 4.3 | 4.3 | 0.00 | 0.00 | 0.00 | 74 | 1013.0 |
| 20260505072944 | 60 | 234 | 1.7 | 2.6 | 0.00 | 0.00 | 0.00 | 74 | 1013.0 |
| 20260505072444 | 60 | 232 | 0.0 | 4.3 | 0.00 | 0.00 | 0.00 | 73 | 1013.0 |
| 20260505072213 | 60 | 246 | 1.7 | 3.5 | 0.00 | 0.00 | 0.00 | 73 | 1013.0 |
| 20260505071944 | 60 | 223 | 0.9 | 4.3 | 0.00 | 0.00 | 0.00 | 72 | 1013.0 |
| 20260505071443 | 61 | 200 | 0.9 | 4.3 | 0.00 | 0.00 | 0.00 | 71 | 1012.8 |
| 20260505071214 | 61 | 195 | 0.9 | 1.7 | 0.00 | 0.00 | 0.00 | 71 | 1012.8 |
| 20260505070944 | 61 | 229 | 0.9 | 2.6 | 0.00 | 0.00 | 0.00 | 71 | 1012.8 |
| 20260505070443 | 61 | 224 | 0.9 | 2.6 | 0.00 | 0.00 | 0.00 | 70 | 1012.8 |
| 20260505070214 | 61 | 240 | 0.9 | 2.6 | 0.00 | 0.00 | 0.00 | 69 | 1012.8 |
| 20260505065943 | 61 | 229 | 1.7 | 1.7 | 0.00 | 0.00 | 0.00 | 69 | 1012.9 |
| 20260505065444 | 62 | 169 | 1.7 | 1.7 | 0.00 | 0.00 | 0.00 | 68 | 1012.9 |
| 20260505065215 | 62 | 251 | 0.9 | 3.5 | 0.00 | 0.00 | 0.00 | 68 | 1012.9 |
| 20260505064943 | 62 | 243 | 0.9 | 4.3 | 0.00 | 0.00 | 0.00 | 67 | 1012.9 |
| 20260505064444 | 62 | 224 | 2.6 | 2.6 | 0.00 | 0.00 | 0.00 | 67 | 1012.9 |
| 20260505064214 | 62 | 184 | 0.9 | 3.5 | 0.00 | 0.00 | 0.00 | 66 | 1012.9 |
| 20260505063944 | 62 | 176 | 1.7 | 3.5 | 0.00 | 0.00 | 0.00 | 66 | 1012.9 |
| 20260505063443 | 62 | 209 | 0.9 | 3.5 | 0.00 | 0.00 | 0.00 | 65 | 1012.9 |
| 20260505063214 | 62 | 219 | 0.9 | 1.7 | 0.00 | 0.00 | 0.00 | 65 | 1012.9 |
| 20260505062945 | 62 | 223 | 0.0 | 2.6 | 0.00 | 0.00 | 0.00 | 65 | 1013.0 |
| 20260505062444 | 62 | 232 | 0.9 | 1.7 | 0.00 | 0.00 | 0.00 | 64 | 1013.0 |
| 20260505062214 | 62 | 198 | 0.0 | 4.3 | 0.00 | 0.00 | 0.00 | 64 | 1013.0 |
| 20260505061944 | 62 | 227 | 0.9 | 0.9 | 0.00 | 0.00 | 0.00 | 64 | 1013.0 |
| 20260505061444 | 62 | 176 | 0.0 | 0.9 | 0.00 | 0.00 | 0.00 | 64 | 1013.0 |
| 20260505061215 | 62 | 216 | 1.7 | 2.6 | 0.00 | 0.00 | 0.00 | 64 | 1013.0 |
| 20260505060944 | 62 | 240 | 0.9 | 2.6 | 0.00 | 0.00 | 0.00 | 64 | 1013.0 |
| 20260505060444 | 62 | 203 | 0.9 | 2.6 | 0.00 | 0.00 | 0.00 | 64 | 1013.0 |
| 20260505060213 | 62 | 237 | 0.9 | 2.6 | 0.00 | 0.00 | 0.00 | 64 | 1013.0 |
| 20260505055943 | 62 | 213 | 0.0 | 2.6 | 0.00 | 0.00 | 0.00 | 64 | 1013.0 |
| 20260505055445 | 62 | 236 | 0.0 | 1.7 | 0.00 | 0.00 | 0.00 | 64 | 1013.0 |
| 20260505055214 | 62 | 264 | 2.6 | 2.6 | 0.00 | 0.00 | 0.00 | 65 | 1013.0 |
| 20260505054944 | 62 | 226 | 0.9 | 2.6 | 0.00 | 0.00 | 0.00 | 65 | 1013.0 |
| 20260505054444 | 62 | 237 | 0.0 | 0.9 | 0.00 | 0.00 | 0.00 | 65 | 1013.0 |
| 20260505054214 | 62 | 227 | 0.0 | 0.9 | 0.00 | 0.00 | 0.00 | 65 | 1013.0 |
| 20260505053944 | 62 | 203 | 0.9 | 1.7 | 0.00 | 0.00 | 0.00 | 65 | 1013.0 |
| 20260505053445 | 62 | 241 | 0.0 | 0.9 | 0.00 | 0.00 | 0.00 | 65 | 1013.0 |
| 20260505053214 | 62 | 198 | 0.0 | 2.6 | 0.00 | 0.00 | 0.00 | 65 | 1013.0 |
| 20260505052943 | 62 | 219 | 0.9 | 0.9 | 0.00 | 0.00 | 0.00 | 64 | 1013.0 |
| 20260505052444 | 62 | 230 | 0.9 | 1.7 | 0.00 | 0.00 | 0.00 | 65 | 1013.0 |
| 20260505052214 | 62 | 246 | 0.9 | 1.7 | 0.00 | 0.00 | 0.00 | 65 | 1013.0 |
| 20260505051943 | 62 | 237 | 0.9 | 0.9 | 0.00 | 0.00 | 0.00 | 65 | 1013.0 |
| 20260505051445 | 62 | 224 | 0.9 | 0.9 | 0.00 | 0.00 | 0.00 | 65 | 1013.1 |
| 20260505051215 | 62 | 210 | 0.0 | 1.7 | 0.00 | 0.00 | 0.00 | 65 | 1013.1 |
| 20260505050943 | 62 | 224 | 0.9 | 0.9 | 0.00 | 0.00 | 0.00 | 64 | 1013.1 |
| 20260505050444 | 62 | 239 | 0.0 | 1.7 | 0.00 | 0.00 | 0.00 | 65 | 1013.1 |
| 20260505050214 | 62 | 233 | 0.0 | 1.7 | 0.00 | 0.00 | 0.00 | 65 | 1013.1 |
| 20260505041443 | 62 | 205 | 0.0 | 0.9 | 0.00 | 0.00 | 0.00 | 65 | 1013.2 |
| 20260505041213 | 62 | 202 | 2.6 | 2.6 | 0.00 | 0.00 | 0.00 | 65 | 1013.2 |
| 20260505040943 | 62 | 248 | 1.7 | 1.7 | 0.00 | 0.00 | 0.00 | 65 | 1013.2 |
| 20260505040444 | 62 | 209 | 0.0 | 0.9 | 0.00 | 0.00 | 0.00 | 65 | 1013.2 |
| 20260505040215 | 62 | 220 | 0.9 | 0.9 | 0.00 | 0.00 | 0.00 | 65 | 1013.2 |
| 20260505035944 | 62 | 223 | 0.9 | 0.9 | 0.00 | 0.00 | 0.00 | 65 | 1013.2 |
| 20260505035444 | 62 | 227 | 0.0 | 0.9 | 0.00 | 0.00 | 0.00 | 65 | 1013.2 |
| 20260505035214 | 62 | 205 | 0.0 | 2.6 | 0.00 | 0.00 | 0.00 | 65 | 1013.2 |
| 20260505034944 | 62 | 206 | 0.0 | 0.9 | 0.00 | 0.00 | 0.00 | 65 | 1013.2 |
| 20260505034444 | 63 | 244 | 0.0 | 0.9 | 0.00 | 0.00 | 0.00 | 65 | 1013.2 |
| 20260505034214 | 63 | 227 | 0.9 | 1.7 | 0.00 | 0.00 | 0.00 | 65 | 1013.2 |
| 20260505033943 | 63 | 178 | 0.0 | 0.0 | 0.00 | 0.00 | 0.00 | 65 | 1013.2 |
| 20260505033444 | 63 | 222 | 0.0 | 0.0 | 0.00 | 0.00 | 0.00 | 65 | 1013.2 |
| 20260505033213 | 63 | 206 | 0.0 | 2.6 | 0.00 | 0.00 | 0.00 | 65 | 1013.2 |
| 20260505032943 | 63 | 226 | 0.0 | 0.9 | 0.00 | 0.00 | 0.00 | 64 | 1013.2 |
| 20260505032445 | 63 | 226 | 0.0 | 0.9 | 0.00 | 0.00 | 0.00 | 64 | 1013.2 |
| 20260505032214 | 64 | 232 | 0.0 | 0.9 | 0.00 | 0.00 | 0.00 | 64 | 1013.2 |
| 20260505031944 | 64 | 206 | 0.0 | 0.0 | 0.00 | 0.00 | 0.00 | 64 | 1013.2 |
| 20260505031443 | 64 | 216 | 0.0 | 0.0 | 0.00 | 0.00 | 0.00 | 64 | 1013.3 |
| 20260505031213 | 64 | 216 | 0.0 | 0.0 | 0.00 | 0.00 | 0.00 | 64 | 1013.3 |
| 20260505030944 | 64 | 212 | 0.0 | 0.9 | 0.00 | 0.00 | 0.00 | 63 | 1013.3 |
| 20260505030444 | 64 | 206 | 0.0 | 1.7 | 0.00 | 0.00 | 0.00 | 63 | 1013.3 |
| 20260505030214 | 64 | 192 | 0.9 | 2.6 | 0.00 | 0.00 | 0.00 | 63 | 1013.3 |
| 20260505025944 | 64 | 160 | 0.0 | 2.6 | 0.00 | 0.00 | 0.00 | 63 | 1013.3 |
| 20260505025444 | 65 | 226 | 0.0 | 1.7 | 0.00 | 0.00 | 0.00 | 63 | 1013.3 |
| 20260505025214 | 65 | 203 | 0.9 | 1.7 | 0.00 | 0.00 | 0.00 | 63 | 1013.3 |
| 20260505024943 | 65 | 212 | 0.0 | 1.7 | 0.00 | 0.00 | 0.00 | 62 | 1013.3 |
| 20260505024443 | 65 | 209 | 0.9 | 1.7 | 0.00 | 0.00 | 0.00 | 62 | 1013.3 |
| 20260505024215 | 65 | 230 | 1.7 | 1.7 | 0.00 | 0.00 | 0.00 | 62 | 1013.3 |
| 20260505023944 | 66 | 229 | 0.9 | 0.9 | 0.00 | 0.00 | 0.00 | 62 | 1013.3 |
| 20260505023443 | 66 | 254 | 0.9 | 1.7 | 0.00 | 0.00 | 0.00 | 62 | 1013.3 |
| 20260505023214 | 66 | 239 | 0.9 | 0.9 | 0.00 | 0.00 | 0.00 | 62 | 1013.3 |
| 20260505022943 | 66 | 246 | 0.9 | 0.9 | 0.00 | 0.00 | 0.00 | 61 | 1013.2 |
| 20260505022444 | 66 | 232 | 0.0 | 2.6 | 0.00 | 0.00 | 0.00 | 61 | 1013.2 |
| 20260505022215 | 66 | 244 | 0.9 | 1.7 | 0.00 | 0.00 | 0.00 | 61 | 1013.2 |
| 20260505021945 | 66 | 239 | 0.9 | 0.9 | 0.00 | 0.00 | 0.00 | 61 | 1013.2 |
| 20260505021444 | 66 | 230 | 0.9 | 1.7 | 0.00 | 0.00 | 0.00 | 61 | 1013.1 |
| 20260505021214 | 66 | 200 | 0.0 | 0.9 | 0.00 | 0.00 | 0.00 | 60 | 1013.1 |
| 20260505020943 | 66 | 191 | 0.9 | 0.9 | 0.00 | 0.00 | 0.00 | 60 | 1013.1 |
| 20260505020444 | 66 | 219 | 0.0 | 1.7 | 0.00 | 0.00 | 0.00 | 60 | 1013.1 |
| 20260505020215 | 66 | 247 | 0.9 | 1.7 | 0.00 | 0.00 | 0.00 | 60 | 1013.1 |
| 20260505015943 | 66 | 230 | 1.7 | 1.7 | 0.00 | 0.00 | 0.00 | 60 | 1012.9 |
| 20260505015444 | 67 | 253 | 0.0 | 2.6 | 0.00 | 0.00 | 0.00 | 60 | 1012.9 |
| 20260505015214 | 67 | 257 | 0.0 | 2.6 | 0.00 | 0.00 | 0.00 | 60 | 1012.9 |
| 20260505014944 | 67 | 251 | 0.0 | 1.7 | 0.00 | 0.00 | 0.00 | 60 | 1012.9 |
| 20260505014443 | 67 | 202 | 0.0 | 2.6 | 0.00 | 0.00 | 0.00 | 60 | 1012.9 |
| 20260505014214 | 67 | 247 | 0.9 | 1.7 | 0.00 | 0.00 | 0.00 | 60 | 1012.9 |
| 20260505013944 | 67 | 233 | 0.0 | 0.9 | 0.00 | 0.00 | 0.00 | 59 | 1012.9 |
| 20260505013444 | 67 | 226 | 0.9 | 0.9 | 0.00 | 0.00 | 0.00 | 59 | 1012.9 |
| 20260505013213 | 67 | 251 | 0.9 | 1.7 | 0.00 | 0.00 | 0.00 | 59 | 1012.9 |
| 20260505012944 | 67 | 237 | 0.0 | 2.6 | 0.00 | 0.00 | 0.00 | 59 | 1012.8 |
| 20260505012444 | 67 | 247 | 0.0 | 0.9 | 0.00 | 0.00 | 0.00 | 59 | 1012.8 |
| 20260505012215 | 67 | 244 | 0.9 | 1.7 | 0.00 | 0.00 | 0.00 | 59 | 1012.8 |
| 20260505011944 | 67 | 258 | 0.9 | 0.9 | 0.00 | 0.00 | 0.00 | 58 | 1012.8 |
| 20260505011443 | 67 | 243 | 0.0 | 0.9 | 0.00 | 0.00 | 0.00 | 59 | 1012.8 |
| 20260505011214 | 67 | 251 | 0.9 | 0.9 | 0.00 | 0.00 | 0.00 | 59 | 1012.8 |
| 20260505010944 | 67 | 237 | 0.9 | 0.9 | 0.00 | 0.00 | 0.00 | 59 | 1012.8 |
| 20260505010443 | 68 | 232 | 0.9 | 1.7 | 0.00 | 0.00 | 0.00 | 58 | 1012.8 |
| 20260505010213 | 68 | 233 | 0.9 | 1.7 | 0.00 | 0.00 | 0.00 | 58 | 1012.8 |
| 20260505005945 | 68 | 239 | 0.0 | 0.9 | 0.00 | 0.00 | 0.00 | 58 | 1012.7 |
| 20260505005443 | 68 | 243 | 0.0 | 0.9 | 0.00 | 0.00 | 0.00 | 58 | 1012.7 |
| 20260505005214 | 68 | 226 | 2.6 | 2.6 | 0.00 | 0.00 | 0.00 | 58 | 1012.7 |
| 20260505004943 | 68 | 240 | 0.9 | 1.7 | 0.00 | 0.00 | 0.00 | 57 | 1012.7 |
| 20260505004445 | 69 | 236 | 0.9 | 1.7 | 0.00 | 0.00 | 0.00 | 57 | 1012.6 |
| 20260505004215 | 69 | 222 | 0.0 | 0.9 | 0.00 | 0.00 | 0.00 | 57 | 1012.6 |
| 20260505003944 | 69 | 219 | 0.0 | 0.9 | 0.00 | 0.00 | 0.00 | 57 | 1012.6 |
| 20260505003443 | 69 | 227 | 0.0 | 0.9 | 0.00 | 0.00 | 0.00 | 57 | 1012.6 |
| 20260505003214 | 69 | 232 | 0.0 | 0.0 | 0.00 | 0.00 | 0.00 | 57 | 1012.6 |
| 20260505002944 | 69 | 198 | 0.0 | 0.9 | 0.00 | 0.00 | 0.00 | 57 | 1012.3 |
| 20260505002444 | 70 | 216 | 0.0 | 3.5 | 0.00 | 0.00 | 0.00 | 58 | 1012.3 |
| 20260505002213 | 70 | 198 | 0.0 | 1.7 | 0.00 | 0.00 | 0.00 | 57 | 1012.3 |
| 20260505001945 | 70 | 220 | 0.0 | 0.9 | 0.00 | 0.00 | 0.00 | 56 | 1012.3 |
| 20260505001445 | 70 | 213 | 0.9 | 0.9 | 0.00 | 0.00 | 0.00 | 57 | 1012.3 |
| 20260505001214 | 71 | 220 | 0.9 | 0.9 | 0.00 | 0.00 | 0.00 | 56 | 1012.3 |
| 20260505000944 | 71 | 210 | 1.7 | 2.6 | 0.00 | 0.00 | 0.00 | 56 | 1012.3 |
| 20260505000443 | 71 | 206 | 0.0 | 0.0 | 0.00 | 0.00 | 0.00 | 55 | 1012.3 |
| 20260505000213 | 72 | 206 | 0.0 | 0.9 | 0.00 | 0.00 | 0.00 | 54 | 1012.3 |
| 20260504235943 | 72 | 199 | 0.0 | 0.9 | 0.00 | 0.00 | 0.00 | 54 | 1012.4 |
| 20260504235445 | 72 | 206 | 0.0 | 0.9 | 0.00 | 0.00 | 0.00 | 53 | 1012.4 |
| 20260504235214 | 72 | 209 | 0.0 | 1.7 | 0.00 | 0.00 | 0.00 | 53 | 1012.4 |
| 20260504234943 | 72 | 193 | 1.7 | 1.7 | 0.00 | 0.00 | 0.00 | 52 | 1012.4 |
| 20260504234443 | 72 | 206 | 2.6 | 2.6 | 0.00 | 0.00 | 0.00 | 51 | 1012.5 |
| 20260504234214 | 72 | 229 | 1.7 | 2.6 | 0.00 | 0.00 | 0.00 | 51 | 1012.5 |
| 20260504233944 | 73 | 220 | 0.0 | 0.9 | 0.00 | 0.00 | 0.00 | 51 | 1012.5 |
| 20260504233445 | 73 | 202 | 0.0 | 0.9 | 0.00 | 0.00 | 0.00 | 50 | 1012.5 |
| 20260504233215 | 73 | 243 | 1.7 | 2.6 | 0.00 | 0.00 | 0.00 | 50 | 1012.5 |
| 20260504232944 | 73 | 233 | 1.7 | 5.2 | 0.00 | 0.00 | 0.00 | 50 | 1012.6 |
| 20260504232443 | 73 | 208 | 0.0 | 0.0 | 0.00 | 0.00 | 0.00 | 50 | 1012.6 |
| 20260504232213 | 73 | 189 | 0.9 | 0.9 | 0.00 | 0.00 | 0.00 | 49 | 1012.6 |
| 20260504231944 | 73 | 198 | 2.6 | 2.6 | 0.00 | 0.00 | 0.00 | 49 | 1012.6 |
| 20260504231444 | 74 | 191 | 0.0 | 1.7 | 0.00 | 0.00 | 0.00 | 48 | 1012.8 |
| 20260504231215 | 74 | 181 | 0.0 | 1.7 | 0.00 | 0.00 | 0.00 | 48 | 1012.8 |
| 20260504230943 | 74 | 220 | 0.0 | 4.3 | 0.00 | 0.00 | 0.00 | 49 | 1012.8 |
| 20260504230443 | 74 | 229 | 0.9 | 1.7 | 0.00 | 0.00 | 0.00 | 47 | 1012.8 |
| 20260504230214 | 74 | 205 | 0.0 | 1.7 | 0.00 | 0.00 | 0.00 | 47 | 1012.8 |
| 20260504225944 | 74 | 189 | 4.3 | 8.7 | 0.00 | 0.00 | 0.00 | 47 | 1012.8 |
| 20260504225444 | 74 | 193 | 2.6 | 2.6 | 0.00 | 0.00 | 0.00 | 48 | 1012.8 |
| 20260504225214 | 74 | 263 | 2.6 | 2.6 | 0.00 | 0.00 | 0.00 | 48 | 1012.8 |
| 20260504224944 | 74 | 168 | 0.9 | 6.1 | 0.00 | 0.00 | 0.00 | 48 | 1012.8 |
| 20260504224443 | 74 | 206 | 0.9 | 2.6 | 0.00 | 0.00 | 0.00 | 49 | 1012.8 |
| 20260504224213 | 74 | 143 | 0.9 | 4.3 | 0.00 | 0.00 | 0.00 | 49 | 1012.8 |
| 20260504223945 | 74 | 164 | 1.7 | 5.2 | 0.00 | 0.00 | 0.00 | 50 | 1012.8 |
| 20260504223444 | 74 | 230 | 0.0 | 0.9 | 0.00 | 0.00 | 0.00 | 48 | 1012.8 |
| 20260504223215 | 74 | 220 | 0.0 | 0.9 | 0.00 | 0.00 | 0.00 | 48 | 1012.8 |
| 20260504222944 | 74 | 251 | 0.9 | 2.6 | 0.00 | 0.00 | 0.00 | 48 | 1012.9 |
| 20260504222443 | 75 | 251 | 0.9 | 0.9 | 0.00 | 0.00 | 0.00 | 47 | 1012.9 |
| 20260504222213 | 75 | 181 | 0.0 | 1.7 | 0.00 | 0.00 | 0.00 | 47 | 1012.9 |
| 20260504221945 | 75 | 240 | 1.7 | 6.1 | 0.00 | 0.00 | 0.00 | 47 | 1012.9 |
| 20260504221444 | 75 | 258 | 5.2 | 6.1 | 0.00 | 0.00 | 0.00 | 48 | 1013.1 |
| 20260504221215 | 75 | 206 | 0.9 | 5.2 | 0.00 | 0.00 | 0.00 | 48 | 1013.1 |
| 20260504220943 | 75 | 261 | 1.7 | 5.2 | 0.00 | 0.00 | 0.00 | 49 | 1013.1 |
| 20260504220444 | 75 | 232 | 3.5 | 4.3 | 0.00 | 0.00 | 0.00 | 49 | 1013.1 |
| 20260504220214 | 75 | 222 | 2.6 | 4.3 | 0.00 | 0.00 | 0.00 | 48 | 1013.1 |
| 20260504215943 | 75 | 246 | 0.9 | 1.7 | 0.00 | 0.00 | 0.00 | 49 | 1013.2 |
| 20260504215443 | 75 | 208 | 0.9 | 2.6 | 0.00 | 0.00 | 0.00 | 47 | 1013.2 |
| 20260504215214 | 75 | 251 | 1.7 | 4.3 | 0.00 | 0.00 | 0.00 | 47 | 1013.2 |
| 20260504214944 | 75 | 140 | 0.9 | 4.3 | 0.00 | 0.00 | 0.00 | 48 | 1013.2 |
| 20260504214445 | 75 | 199 | 2.6 | 6.1 | 0.00 | 0.00 | 0.00 | 47 | 1013.3 |
| 20260504214215 | 75 | 233 | 0.9 | 1.7 | 0.00 | 0.00 | 0.00 | 47 | 1013.3 |
| 20260504213944 | 75 | 261 | 0.0 | 1.7 | 0.00 | 0.00 | 0.00 | 48 | 1013.3 |
| 20260504213443 | 75 | 282 | 1.7 | 6.1 | 0.00 | 0.00 | 0.00 | 47 | 1013.3 |
| 20260504213214 | 75 | 239 | 2.6 | 7.8 | 0.00 | 0.00 | 0.00 | 46 | 1013.3 |
| 20260504212945 | 75 | 212 | 1.7 | 5.2 | 0.00 | 0.00 | 0.00 | 45 | 1013.4 |
| 20260504212443 | 75 | 268 | 10.4 | 10.4 | 0.00 | 0.00 | 0.00 | 46 | 1013.4 |
| 20260504212214 | 76 | 175 | 1.7 | 3.5 | 0.00 | 0.00 | 0.00 | 46 | 1013.4 |
| 20260504211944 | 76 | 280 | 5.2 | 8.7 | 0.00 | 0.00 | 0.00 | 45 | 1013.4 |
| 20260504211443 | 76 | 246 | 8.7 | 9.6 | 0.00 | 0.00 | 0.00 | 45 | 1013.3 |
| 20260504211215 | 76 | 256 | 2.6 | 5.2 | 0.00 | 0.00 | 0.00 | 45 | 1013.3 |
| 20260504210944 | 76 | 191 | 2.6 | 7.8 | 0.00 | 0.00 | 0.00 | 47 | 1013.3 |
| 20260504210443 | 76 | 210 | 0.0 | 1.7 | 0.00 | 0.00 | 0.00 | 45 | 1013.3 |
| 20260504210213 | 76 | 244 | 0.9 | 7.8 | 0.00 | 0.00 | 0.00 | 45 | 1013.3 |
| 20260504205943 | 76 | 256 | 1.7 | 8.7 | 0.00 | 0.00 | 0.00 | 46 | 1013.3 |
| 20260504205444 | 76 | 264 | 6.1 | 7.0 | 0.00 | 0.00 | 0.00 | 46 | 1013.3 |
| 20260504205215 | 76 | 227 | 1.7 | 1.7 | 0.00 | 0.00 | 0.00 | 46 | 1013.3 |
| 20260504204943 | 76 | 193 | 0.0 | 5.2 | 0.00 | 0.00 | 0.00 | 46 | 1013.3 |
| 20260504204444 | 76 | 224 | 1.7 | 1.7 | 0.00 | 0.00 | 0.00 | 48 | 1013.4 |
| 20260504204213 | 76 | 200 | 0.9 | 4.3 | 0.00 | 0.00 | 0.00 | 46 | 1013.4 |
| 20260504203943 | 76 | 246 | 1.7 | 7.8 | 0.00 | 0.00 | 0.00 | 47 | 1013.4 |
| 20260504203445 | 76 | 243 | 1.7 | 1.7 | 0.00 | 0.00 | 0.00 | 47 | 1013.4 |
| 20260504203214 | 76 | 284 | 2.6 | 2.6 | 0.00 | 0.00 | 0.00 | 47 | 1013.4 |
| 20260504202944 | 76 | 196 | 3.5 | 5.2 | 0.00 | 0.00 | 0.00 | 46 | 1013.6 |
| 20260504202444 | 76 | 213 | 0.9 | 2.6 | 0.00 | 0.00 | 0.00 | 47 | 1013.6 |
| 20260504202213 | 76 | 229 | 1.7 | 1.7 | 0.00 | 0.00 | 0.00 | 48 | 1013.6 |
| 20260504201945 | 76 | 223 | 1.7 | 4.3 | 0.00 | 0.00 | 0.00 | 47 | 1013.6 |
| 20260504201445 | 76 | 216 | 3.5 | 7.8 | 0.00 | 0.00 | 0.00 | 48 | 1013.6 |
| 20260504201215 | 76 | 184 | 0.9 | 0.9 | 0.00 | 0.00 | 0.00 | 49 | 1013.6 |
| 20260504200943 | 76 | 244 | 1.7 | 5.2 | 0.00 | 0.00 | 0.00 | 49 | 1013.6 |
| 20260504200443 | 76 | 206 | 0.0 | 3.5 | 0.00 | 0.00 | 0.00 | 49 | 1013.6 |
| 20260504200215 | 76 | 222 | 1.7 | 2.6 | 0.00 | 0.00 | 0.00 | 49 | 1013.6 |
| 20260504195943 | 76 | 212 | 0.9 | 3.5 | 0.00 | 0.00 | 0.00 | 49 | 1013.9 |
| 20260504195444 | 76 | 192 | 0.9 | 2.6 | 0.00 | 0.00 | 0.00 | 50 | 1013.9 |
| 20260504195214 | 76 | 213 | 1.7 | 2.6 | 0.00 | 0.00 | 0.00 | 51 | 1013.9 |
| 20260504194944 | 76 | 206 | 0.0 | 1.7 | 0.00 | 0.00 | 0.00 | 49 | 1013.9 |
| 20260504194444 | 76 | 206 | 2.6 | 2.6 | 0.00 | 0.00 | 0.00 | 48 | 1014.2 |
| 20260504194214 | 75 | 195 | 0.0 | 0.9 | 0.00 | 0.00 | 0.00 | 47 | 1014.2 |
| 20260504193945 | 75 | 208 | 0.0 | 0.9 | 0.00 | 0.00 | 0.00 | 49 | 1014.2 |
| 20260504193443 | 75 | 171 | 0.0 | 0.9 | 0.00 | 0.00 | 0.00 | 50 | 1014.2 |
| 20260504193216 | 75 | 215 | 0.0 | 1.7 | 0.00 | 0.00 | 0.00 | 51 | 1014.2 |
| 20260504192944 | 75 | 169 | 1.7 | 5.2 | 0.00 | 0.00 | 0.00 | 48 | 1014.4 |
| 20260504192444 | 75 | 165 | 1.7 | 3.5 | 0.00 | 0.00 | 0.00 | 50 | 1014.4 |
| 20260504192214 | 75 | 205 | 0.0 | 5.2 | 0.00 | 0.00 | 0.00 | 52 | 1014.4 |
| 20260504191946 | 75 | 240 | 2.6 | 5.2 | 0.00 | 0.00 | 0.00 | 52 | 1014.4 |
| 20260504191445 | 75 | 205 | 1.7 | 2.6 | 0.00 | 0.00 | 0.00 | 52 | 1014.7 |
| 20260504191214 | 75 | 270 | 0.0 | 3.5 | 0.00 | 0.00 | 0.00 | 52 | 1014.7 |
| 20260504190943 | 75 | 160 | 1.7 | 4.3 | 0.00 | 0.00 | 0.00 | 55 | 1014.7 |
| 20260504190446 | 74 | 148 | 0.0 | 0.9 | 0.00 | 0.00 | 0.00 | 52 | 1014.7 |
| 20260504190215 | 74 | 216 | 0.0 | 2.6 | 0.00 | 0.00 | 0.00 | 52 | 1014.7 |
| 20260504185944 | 74 | 215 | 0.9 | 1.7 | 0.00 | 0.00 | 0.00 | 52 | 1014.8 |
| 20260504185443 | 74 | 186 | 2.6 | 5.2 | 0.00 | 0.00 | 0.00 | 53 | 1014.8 |
| 20260504185214 | 74 | 208 | 2.6 | 2.6 | 0.00 | 0.00 | 0.00 | 53 | 1014.8 |
| 20260504184943 | 74 | 209 | 1.7 | 5.2 | 0.00 | 0.00 | 0.00 | 53 | 1014.8 |
| 20260504184444 | 74 | 198 | 0.0 | 4.3 | 0.00 | 0.00 | 0.00 | 52 | 1014.9 |
| 20260504184216 | 74 | 202 | 2.6 | 2.6 | 0.00 | 0.00 | 0.00 | 53 | 1014.9 |
| 20260504183943 | 74 | 216 | 0.0 | 0.9 | 0.00 | 0.00 | 0.00 | 55 | 1014.9 |
| 20260504183444 | 75 | 160 | 0.0 | 2.6 | 0.00 | 0.00 | 0.00 | 50 | 1014.9 |
| 20260504183213 | 75 | 193 | 2.6 | 3.5 | 0.00 | 0.00 | 0.00 | 54 | 1014.9 |
| 20260504182945 | 75 | 210 | 1.7 | 2.6 | 0.00 | 0.00 | 0.00 | 51 | 1015.2 |
| 20260504182443 | 75 | 270 | 0.9 | 4.3 | 0.00 | 0.00 | 0.00 | 52 | 1015.2 |
| 20260504182216 | 75 | 250 | 2.6 | 2.6 | 0.00 | 0.00 | 0.00 | 53 | 1015.2 |
| 20260504181944 | 75 | 302 | 1.7 | 4.3 | 0.00 | 0.00 | 0.00 | 54 | 1015.2 |
| 20260504181443 | 75 | 263 | 3.5 | 3.5 | 0.00 | 0.00 | 0.00 | 53 | 1015.3 |
| 20260504181214 | 75 | 205 | 4.3 | 5.2 | 0.00 | 0.00 | 0.00 | 54 | 1015.3 |
| 20260504180944 | 75 | 155 | 2.6 | 2.6 | 0.00 | 0.00 | 0.00 | 54 | 1015.3 |
| 20260504180443 | 74 | 193 | 1.7 | 3.5 | 0.00 | 0.00 | 0.00 | 54 | 1015.3 |
| 20260504180215 | 74 | 226 | 0.0 | 0.9 | 0.00 | 0.00 | 0.00 | 54 | 1015.3 |
| 20260504175944 | 74 | 236 | 1.7 | 2.6 | 0.00 | 0.00 | 0.00 | 53 | 1015.5 |
| 20260504175443 | 74 | 253 | 0.9 | 2.6 | 0.00 | 0.00 | 0.00 | 53 | 1015.5 |
| 20260504175216 | 74 | 274 | 5.2 | 5.2 | 0.00 | 0.00 | 0.00 | 53 | 1015.5 |
| 20260504174944 | 74 | 250 | 1.7 | 7.0 | 0.00 | 0.00 | 0.00 | 52 | 1015.5 |
| 20260504174443 | 74 | 241 | 0.0 | 0.0 | 0.00 | 0.00 | 0.00 | 52 | 1015.6 |
| 20260504174214 | 74 | 241 | 0.0 | 1.7 | 0.00 | 0.00 | 0.00 | 52 | 1015.6 |
| 20260504173943 | 74 | 241 | 0.9 | 0.9 | 0.00 | 0.00 | 0.00 | 52 | 1015.6 |
| 20260504173445 | 74 | 232 | 3.5 | 5.2 | 0.00 | 0.00 | 0.00 | 52 | 1015.6 |
| 20260504173215 | 74 | 212 | 0.9 | 1.7 | 0.00 | 0.00 | 0.00 | 52 | 1015.6 |
| 20260504172944 | 74 | 264 | 4.3 | 4.3 | 0.00 | 0.00 | 0.00 | 52 | 1015.7 |
| 20260504172444 | 74 | 209 | 4.3 | 6.1 | 0.00 | 0.00 | 0.00 | 53 | 1015.7 |
| 20260504172213 | 74 | 258 | 0.0 | 1.7 | 0.00 | 0.00 | 0.00 | 52 | 1015.7 |
| 20260504171944 | 74 | 256 | 0.0 | 2.6 | 0.00 | 0.00 | 0.00 | 51 | 1015.7 |
| 20260504171444 | 74 | 237 | 0.0 | 3.5 | 0.00 | 0.00 | 0.00 | 54 | 1015.9 |
| 20260504171213 | 74 | 282 | 1.7 | 4.3 | 0.00 | 0.00 | 0.00 | 53 | 1015.9 |
| 20260504170943 | 74 | 287 | 0.9 | 1.7 | 0.00 | 0.00 | 0.00 | 51 | 1015.9 |
| 20260504170444 | 74 | 192 | 0.0 | 3.5 | 0.00 | 0.00 | 0.00 | 53 | 1015.9 |
| 20260504170215 | 73 | 268 | 6.1 | 6.1 | 0.00 | 0.00 | 0.00 | 52 | 1015.9 |